Location: Dackenheim
(49.5215°N, 8.1854°E)
Time: 07:42:32
(UTC+00:00)

O/OREOS (USA 219) - Visible Passes

Search period start: 11 March 2026 00:00
Search period end: 21 March 2026 00:00
Orbit: 576 x 599 km, 72.0° (Epoch: 10 March)

Date Brightness Start Highest point End Pass type
(mag) Time Alt. Az. Time Alt. Az. Time Alt. Az.
11 Mar ? 18:16:55 10° NNW 18:21:13 57° ENE 18:25:27 10° SE visible
11 Mar ? 19:56:14 10° WNW 19:59:13 18° WSW 20:02:11 10° SW visible
12 Mar ? 18:24:15 10° NNW 18:28:38 86° ENE 18:32:57 10° SSE visible
12 Mar ? 20:04:44 10° WNW 20:06:21 12° W 20:07:57 10° WSW visible
13 Mar ? 18:31:41 10° NNW 18:35:58 62° WSW 18:40:13 10° SSE visible
14 Mar ? 18:39:12 10° NW 18:43:15 39° WSW 18:47:16 10° S visible
15 Mar ? 18:46:52 10° NW 18:50:28 26° WSW 18:54:03 10° SSW visible
16 Mar ? 18:54:47 10° WNW 18:57:38 17° W 19:00:27 10° SW visible
17 Mar ? 19:03:29 10° W 19:04:43 11° W 19:05:57 10° WSW visible
